Regional Weather Roundup
Issued by NWS Wakefield, VA

Home | Current Version | Previous Version | Graphics & Text | Print | Product List | Glossary On
Versions: 1 2 3 4 5 6 7 8 9 10 11 12 13 14 15 16 17 18 19 20 21 22 23 24 25 26 27 28 29 30 31 32 33 34 35 36 37 38 39 40 41 42 43 44 45 46 47 48 49 50
000
ASUS41 KAKQ 201110
RWRAKQ

REGIONAL WEATHER ROUNDUP
NATIONAL WEATHER SERVICE WAKEFIELD VA
600 AM EST SAT DEC 20 2014

Note: "fair" indicates few or no clouds below 12,000 feet with no
significant weather and/or obstructions to visibility. * = Denotes
station may not report precipitation (e.g., rain,snow,etc.),
thunder or fog.

VAZ042-051-052>054-056-201200-
NORTHERN VIRGINIA

CITY           SKY/WX    TMP DP  RH WIND       PRES   REMARKS
WASH NATIONAL  PTCLDY    32  19  58 NW6       30.29R
DULLES         PTCLDY    20  17  88 CALM      30.28R
FORT BELVOIR   CLEAR     21  19  91 NW2       30.30R
QUANTICO       CLEAR     24  20  84 NW6       30.31R
FREDERICKSBRG* CLEAR     24  24  99 CALM      30.30R
STAFFORD*      CLEAR     20  20 100 CALM      30.33R
WARRENTON      CLEAR     19  19 100 CALM      30.28R
CULPEPER*      CLEAR     19  18  93 CALM      30.28R
MANASSAS*      CLEAR     19  18  93 CALM      30.30R
LEESBURG*      CLEAR     25  23  93 NW7       30.29R
WINCHESTER     CLEAR     25  18  74 CALM      30.26R
FRONT ROYAL*   MOSUNNY   21  19  93 CALM      30.25S
LURAY*         MOSUNNY   23  23 100 CALM      30.26S
$$

VAZ048-049-060>072-079>083-201200-
CENTRAL AND SOUTH CENTRAL VIRGINIA

CITY           SKY/WX    TMP DP  RH WIND       PRES   REMARKS
RICHMOND       CLOUDY    32  22  66 CALM      30.29R
CHESTERFIELD*  CLOUDY    30  16  55 CALM      30.30R
PETERSBURG*    CLOUDY    30  29  95 CALM      30.31R
HANOVER        PTCLDY    28  23  81 CALM      30.31R
TAPPAHANNOCK*  PTCLDY    25  21  84 CALM      30.28R
QUINTON*       PTSUNNY   30  23  75 CALM      30.29R
CHARLOTTSVILLE PTCLDY    26  21  81 S3        30.26R
GORDONSVILLE*  MOSUNNY   20  18  91 SW3       30.27S
ORANGE*        CLEAR     23  21  93 CALM      30.29R
LOUISA*        PTCLDY    21  19  93 CALM      30.27R
BUMPASS*       MOSUNNY   24  21  87 SW3       30.29R
FARMVILLE*     MOCLDY    28  24  85 CALM      30.27S
CREWE*         CLOUDY    27  25  90 CALM      30.27R
FORT PICKETT*  CLOUDY    30  25  81 CALM      30.28R
CHASE CITY*    CLOUDY    33  26  76 CALM      30.26S
CLARKSVILLE*   CLOUDY    32  25  74 E6        30.25S
SOUTH HILL*    CLOUDY    31  24  75 NE3       30.32S
LAWRENCEVILLE* CLOUDY    31  25  76 CALM      30.27R
EMPORIA*       CLOUDY    32  27  80 NW5       30.30R
$$

VAZ088>098-201200-
SOUTHEAST VIRGINIA

CITY           SKY/WX    TMP DP  RH WIND       PRES   REMARKS
NORFOLK        CLOUDY    38  30  73 N5        30.26R
VIRGINIA BEACH CLOUDY    36  28  73 CALM      30.26R
NORFOLK NAVAL  MOCLDY    39  29  67 N8        30.29R
WEST POINT*    MOCLDY    27  24  87 CALM      30.31R
SALUDA*        FAIR      32  25  74 N6        30.26S
NEWPORT NEWS   MOCLDY    35  25  66 N3        30.27R
LANGLEY AFB    CLOUDY    33  26  75 NW6       30.28R
FORT EUSTIS    CLOUDY    34  25  69 VRB3      30.27R
WILLIAMSBURG*  CLOUDY    34  28  80 N3        30.29R
HR EXEC AP*    CLOUDY    28  27  93 W3        30.30R
FRANKLIN*      CLOUDY    28  27  93 CALM      30.28R
WAKEFIELD      CLOUDY    31  26  82 CALM      30.29R
$$

VAZ020-022-025-037-045-201200-
WEST CENTRAL AND SOUTHWEST VIRGINIA

CITY           SKY/WX    TMP DP  RH WIND       PRES   REMARKS
STAUNTON*      PTCLDY    22  19  88 CALM      30.25S
WAYNESBORO*    MOSUNNY   22  19  90 CALM      30.22R
HOT SPRINGS VA CLOUDY    26  20  76 SW12      30.07R WCI  16
LYNCHBURG      MOCLDY    26  23  88 CALM      30.27R
DANVILLE       CLOUDY    33  24  69 E7        30.27R
SOUTH BOSTON*  CLOUDY    31  24  78 CALM      30.27R
MARTINSVILLE   CLOUDY    33  26  76 CALM      30.29R
ROANOKE        CLOUDY    31  23  72 E3        30.25R
BLACKSBURG     CLOUDY    29  22  78 CALM      30.22S
DUBLIN*        CLOUDY    30  27  88 CALM      30.20R
MARION*        FLURRIES  32  26  77 SE3       30.19R
HILLSVILLE*    CLOUDY    31  25  77 S3        30.17R
RICHLANDS*     LGT SNOW  29  26  90 SE3       30.14R
WISE*          LGT SNOW  32  27  80 E5        30.14R
ABINGDON*      LGT RAIN  37  30  75 E5        30.16R
$$

MDZ021>025-VAZ099-100-201200-
SOUTHERN MARYLAND AND THE DELMARVA PENINSULA

CITY           SKY/WX    TMP DP  RH WIND       PRES   REMARKS
PATUXENT RIVER CLEAR     30  21  69 NW8       30.26S
BAY BRIDGE APT   N/A     32  23  69 NW6       30.27R
LEONARDTOWN      N/A     25  21  86 MISG        N/A
DOVER          MOCLDY    27  23  85 NW6       30.23R
GEORGETOWN     CLEAR     26  20  77 CALM      30.26R
EASTON         CLEAR     30  27  86 CALM      30.29S
CAMBRIDGE      CLEAR     28  23  80 CALM      30.25S
SALISBURY      CLEAR     26  21  81 CALM      30.25S
OCEAN CITY     CLEAR     25  21  85 NW3       30.26R
WALLOPS ISLAND CLEAR     28  24  85 N5        30.25S
ACCOMACK*      PTCLDY    28  25  86 CALM      30.26R
$$

NCZ012>017-030>032-201200-
NORTH CENTRAL AND EASTERN NORTH CAROLINA

CITY           SKY/WX    TMP DP  RH WIND       PRES   REMARKS
ROANOKE RAPIDS CLOUDY    32  27  80 N3        30.28R
RALEIGH        CLOUDY    35  26  69 E7        30.26R
ELIZABETH CITY CLOUDY    38  29  70 N9        30.26R
AHOSKIE*       CLOUDY    32  26  81 CALM      30.28R
EDENTON*         N/A     33  29  86 N3        30.27R
CURRITUCK*     CLOUDY    32  28  85 CALM      30.28R
KILL DEVIL HLS CLOUDY    39  32  76 N3        30.23R
MANTEO         CLOUDY    40  33  75 N7        30.24S
CAPE HATTERAS  CLOUDY    42  34  73 NE3       30.23S
TARBORO*       CLOUDY    34  30  86 CALM      30.29R
GOLDSBORO      CLOUDY    37  36  97 NE2       30.24R
WASHINGTON     CLOUDY    34  31  89 N3        30.27R
GREENVILLE     CLOUDY    34  32  93 N5        30.27R
NEW BERN       CLOUDY    40  34  79 NE6       30.26R
WILMINGTON     CLOUDY    43  39  86 NE7       30.21R
$$

VAZ048-201200-
ELSEWHERE

CITY           SKY/WX    TMP DP  RH WIND       PRES   REMARKS
HARRISBURG PA  CLOUDY    31  19  61 N9        30.25R
BALTIMORE      PTCLDY    25  19  78 CALM      30.26R
ANNAPOLIS      CLEAR     31  23  72 NW6       30.27R
ANDREWS AFB    CLEAR     23  18  81 NW6       30.27R
PHILADELPHIA   CLOUDY    34  22  61 N10       30.26S
HENDERSON NC   CLOUDY    32  24  73 NE3       30.26R
GREENSBORO     CLOUDY    36  26  67 N5        30.22R
ROCKY MOUNT    CLOUDY    34  28  79 NE3       30.27R
$$

VAZ100-201200-
MARINE

STATION/POSITION TIME  TEMP    WIND        PRES    WAVE   SWELL
                       AIR SEA DIR/SP/G            HT/PER HT/PER
                 (UTC) (F)     (DEG/KT/KT) (MB)    (FT/S) (FT/S)
CAPE MAY NJ      1100   35 42   CALM  /  2 1023.7F
LEWES DE         1100   33 42  320/ 11/ 13 1023.9F
15NM E FENWICK I 1100   36 46              1023.8R   2/ 5
OCEAN-CITY-INLET 1100   30 44  310/  2/  3 1024.2R
WACHAPREAGUE VA  1100   30 41  310/  2/  5 1024.4R
THOMAS POINT MD  1100   31 40  320/  7/  8 1026.1R
GOOSES REEF MD   1100   34     VRB 12/ 16  1023.9S
COVE POINT MD    1100   34     360/ 12/ 15 1024.3S
SOLOMONS ISLAND  1100      42                N/A
BISHOPS HEAD MD  1100   29 35  340/  5/  5 1023.9S
POTOMAC MD       1100   33     360/  8/ 10 1023.6R
CAMBRIDGE MD     1100   34 40  320/  7/  9 1024.6R
LEWISETTA VA     1100   34 41  360/  6/  9 1024.8R
RAPPAHANNOCK LGT 1100           10/ 12/ 14 1024.9R
STINGRAY PT      1100   36     350/ 10/ 12 1024.9R
YORK RVR RNG VA  1100   36     360/ 12/ 14 1024.0R
YORKTOWN VA      1100   33 45  340/  7/  9 1024.6R
JAMESTOWN VA     1100   31     360/  4/  6   N/A
DOMINION TERM VA 1100   35      10/  6/  8 1024.9R
KIPTOPEKE VA     1100      49   40/  4/  7   N/A
CHES BAY BRIDGE  1100   38 45   30/ 10/ 12 1024.2R
CAPE HENRY VA    1100   38      20/ 10/ 14 1023.3R
CHESAPEAKE LGHT  1000   39      10/ 12/ 13 1024.4F
WILLOUBY STN VA  1100   36     340/  8/ 10 1025.3R
S CRANEY ISL VA  1100          340/  4/  6 1024.9R
CAPE HENRY BUOY  1100      49                N/A     3/ 5
1ST LANDING BUOY 1100   38      30/ 12/ 16 1023.6R
CAPE CHARLES BUO 1100      47                N/A     2/ 4   2/ 5
64NM E OF VA BCH 1100   43 54  360/ 10/ 14 1022.9R   3/ 5   2/ 5
DUCK PIER NC     1100   40 46  330/  8/ 10 1023.5R
44100 DUCK FRF   1100      52                N/A     3/ 5
44056 DUCK FRF   1100      46                N/A     3/ 5
OREGON INLET NC  1100   42 50  360/  7/  9 1023.7S
HATTERAS NC      1100   43 51   40/  5/  6 1023.9S
DIAMOND SHLS NC  1100   46                 1023.6R   3/ 6
CAPE LOOKOUT NC  1000   45      20/  9/ 10 1022.9F
$$



USA.gov is the U.S. government's official web portal to all federal, state and local government web resources and services.